Location: *
(55.5817°S, 142.4781°W)
Time: 06:21:25
(UTC+00:00)

JB-3 - Pass Details

Date: 29 April 2025
Orbit: 494 x 545 km, 97.2° (Epoch: 23 May)

Event Time Altitude Azimuth Distance (km) Brightness Sun altitude
Rises 14:28:00 0° 165° (SSE) 2,665 8.1 -20.4°
Reaches altitude 10° 14:30:07 10° 162° (SSE) 1,778 7.2 -20.1°
Maximum altitude 14:33:56 72° 78° (ENE) 564 4.4 -19.6°
Drops below altitude 10° 14:37:48 10° 352° (N) 1,783 6.8 -19.0°
Sets 14:39:55 0° 350° (N) 2,674 7.7 -18.7°
